Regional Weather Roundup
Issued by NWS Grand Forks, ND

Home | Current Version | Previous Version | Graphics & Text | Print | Product List | Glossary On
Versions: 1 2 3 4 5 6 7 8 9 10 11 12 13 14 15 16 17 18 19 20 21 22 23 24 25 26 27 28 29 30 31 32 33 34 35 36 37 38 39 40 41 42 43 44 45 46 47 48 49 50
000
ASUS43 KFGF 091310
RWRFGF
PRAIRIE TO PINES  WEATHER ROUNDUP
NATIONAL WEATHER SERVICE EASTERN NORTH DAKOTA/GRAND FORKS ND
700 AM CST TUE FEB 09 2016

 **SATELLITE DATA USED TO AUGMENT SKY COVER AT AUTOMATED STATIONS**
 *****  WEATHER ACROSS EASTERN NORTH DAKOTA  *****

CITY           SKY/WX    TMP DP  RH WIND       PRES   REMARKS
GRAND FORKS    CLOUDY    11   3  70 N14       30.29R WCI  -5
GRAND FRKS AFB CLOUDY    10   4  75 N8        30.28S WCI  -2
DEVILS LAKE    CLOUDY    14   9  80 CALM      30.24S
FARGO          CLOUDY    10   4  76 N12       30.27R WCI  -5
WAHPETON ARPT  CLOUDY     7   1  78 NW8       30.26R WCI  -6
$$

 ***** WEATHER ACROSS CENTRAL AND WESTERN NORTH DAKOTA  *****

CITY           SKY/WX    TMP DP  RH WIND       PRES   REMARKS
BISMARCK       CLOUDY    25  13  60 W3        30.26F
MINOT          CLOUDY    26   8  46 SW7       30.21S WCI  18
JAMESTOWN      CLOUDY    15   9  76 NW7       30.24S WCI   5
MINOT AFB      CLOUDY    23  12  61 CALM      30.22R
GARRISON         N/A     22  14  71 SW7       30.22F WCI  13
WILLISTON      CLOUDY    27  21  78 CALM      30.19F
DICKINSON      CLOUDY    21  16  81 S5        30.16S WCI  15
HETTINGER      CLOUDY    27  16  63 SE5       30.20S WCI  22
$$

 *****  OTHER AIRPORT OBSERVATIONS IN OUR AREA  *****

CITY           SKY/WX    TMP DP  RH WIND       PRES   REMARKS
WALHALLA       FAIR       9   7  92 N8        30.30R WCI  -4
GRAFTON AIRPOR CLOUDY     9   3  78 N9        30.31S WCI  -5
VALLEY CITY AR CLOUDY    14   9  79 N9        30.26S WCI   2
CANDO          NOT AVBL
CAVALIER APRT  CLOUDY     9   5  85 N9        30.30R WCI  -5
GWINNER        CLOUDY    14   9  79 NW9       30.26R WCI   2
SHEYENNE NWR     N/A     10   4  75 NW3       29.95
ROLLA          CLOUDY    18  10  73 N3        30.22R
 ***** THE ABOVE OBSERVATIONS ARE NON NWS ARE NOT QUALITY
       CONTROLLED AND MAY MIS-REPORT RAIN FOR SNOW...
$$

  *****  WEATHER ACROSS NORTHERN MINNESOTA  *****

CITY           SKY/WX    TMP DP  RH WIND       PRES   REMARKS
FLAG ISLAND    CLOUDY    -4  -8  84 N8        30.20R WCI -19
WARROAD        CLOUDY    -2  -8  78 NW6       30.21S WCI -14
ROSEAU         CLOUDY    -6  -9  84 NW6       30.23S WCI -18
HALLOCK        CLOUDY     7   1  78 N13       30.28R WCI  -9
THF RVR FALLS  NOT AVBL
BAUDETTE       CLOUDY    -6 -11  79 NW8       30.18R WCI -21
WASKISH        PTCLDY    -8 -11  84 W6        30.18R WCI -21
CROOKSTON      PTCLDY     7   3  85 N17       30.27S WCI -12
STEPHEN NDAWN    N/A      7   1  78 N10         N/A  WCI  -8
GREENBUSH NDAW   N/A      1   0  92 NW9         N/A  WCI -14
$$
  *****  WEATHER ACROSS CENTRAL AND WEST MINNESOTA  *****

CITY           SKY/WX    TMP DP  RH WIND       PRES   REMARKS
FOSSTON        CLOUDY    -2  -6  84 N8        30.20S WCI -17
BEMIDJI        CLOUDY    -6  -9  86 NW7       30.16R WCI -20
PARK RAPIDS    CLEAR      0  -5  79 NW12      30.14R WCI -17
ELBOW LAKE     FAIR       2  -2  83 W13       30.21R WCI -15
WADENA         CLEAR      0  -4  85 NW8       30.15R WCI -15
DETROIT LAKES  CLOUDY     0  -4  85 NW9       30.19S WCI -16
MOORHEAD       PTCLDY     7   1  78 N8        30.27R WCI  -6
FERGUS FALLS   MOCLDY     1  -2  85 N10       30.26R WCI -14
MORRIS MN      CLEAR      3   0  85 NW16      30.19R WCI -16
STAPLES        CLEAR      0  -4  85 N12       30.13R WCI -18
$$
  *****  WEATHER ELSEWHERE ACROSS MINNESOTA  *****

CITY           SKY/WX    TMP DP  RH WIND       PRES   REMARKS
DULUTH         PTCLDY    -2  -7  79 N9        29.99R WCI -18
INTRNTL FALLS  CLOUDY    -6 -10  83 NW9       30.13S WCI -23
ELY            CLOUDY     0  -6  78 N8        30.00S WCI -15
CLOQUET        PTCLDY    -2  -8  78 NW9       30.02R WCI -18
WHEATON        MOCLDY     5   1  85 W9        30.28R WCI  -9
BRAINERD       CLEAR      1  -5  75 N15       30.11R WCI -18
HIBBING        CLOUDY    -1  -5  82 NW15      30.04R WCI -21
ALEXANDRIA     CLEAR      2  -3  80 NW14      30.14R WCI -16
SAINT CLOUD    CLEAR      3  -4  72 NW15G23   30.10R WCI -16
MINNEAPOLIS    PTCLDY     5  -2  72 NW14G25   30.09R WCI -12
$$

  *****  WEATHER ACROSS SOUTH DAKOTA  *****

CITY           SKY/WX    TMP DP  RH WIND       PRES   REMARKS
SIOUX FALLS    PTCLDY     6  -1  73 N16       30.21R WCI -12
BROOKINGS      CLEAR      3  -2  79 N12       30.19R WCI -13
WATERTOWN      CLEAR      3  -3  76 N10       30.20R WCI -12
HURON          CLOUDY    13   7  77 NW13      30.28R WCI  -2
SISSETON         N/A      8   3  80 N14       30.25R WCI  -8
ABERDEEN       CLOUDY    13   5  70 N5        30.28R WCI   5
MITCHELL       PTCLDY    14   8  77 NW15      30.30R WCI  -1
PIERRE         CLOUDY    23   9  55 N7        30.29R WCI  15
MOBRIDGE       CLOUDY    23  13  65 W6        30.23S WCI  16
RAPID CITY     PTCLDY    24  15  68 CALM      30.21F
$$

  *****  SOME WEATHER IN NEARBY STATES *****

CITY           SKY/WX    TMP DP  RH WIND       PRES   REMARKS
GLASGOW MT     CLOUDY    31  26  82 NW5       30.24S
GREAT FALLS MT CLEAR     40  28  62 SW14      30.31S
CHEYENNE WY    CLEAR     36  18  48 NW15G25   30.29R
SCOTTSBLUFF NE CLEAR     30  23  75 NW8       30.27R WCI  22
OMAHA NE       PTCLDY    13   6  74 N13       30.19R WCI  -2
DES MOINES IA  FLURRIES  11   3  70 NW16G25   30.09R WCI  -6
DAVENPORT IA   PTCLDY    11   3  70 NW15      29.92R WCI  -5
CHICAGO IL     LGT SNOW  16  11  80 NW14      29.78R WCI   2
EAU CLAIRE WI  PTCLDY     4  -5  66 NW10      29.99R WCI -11
LA CROSSE WI   CLOUDY     8   0  69 NW20      29.98R WCI -11
$$

  *****  SOME NATIONAL WEATHER *****

CITY           SKY/WX    TMP DP  RH WIND       PRES   REMARKS
LA GUARDIA NY  CLOUDY    29  23  78 NE10      29.69F WCI  20
RALEIGH NC     CLOUDY    36  32  85 SW5       29.65R
ATLANTA GA     CLOUDY    34  20  56 W15       29.84R WCI  24
NEW ORLEANS LA PTCLDY    41  18  39 NW10      30.18R
OKLAHOMA CITY  PTCLDY    33  17  51 NW7       30.24R
ALBUQUERQUE NM CLOUDY    31  21  66 CALM      30.40R
SALT LAKE CITY PTCLDY    25  21  85 SE6       30.60R FOG     WCI  18
LOS ANGELES CA CLEAR     65  24  21 NE7       30.11S
BOISE ID       CLOUDY    28  24  85 SE6       30.60S WCI  22
SEATTLE WA     CLEAR     40  38  93 SE6       30.20F
$$

*** WEATHER ACROSS MANITOBA...SASKATCHEWAN AND ONTARIO ***
                ***ONTARIO***

CITY           SKY/WX    TMP DP  RH WIND       PRES   REMARKS
GERALDTON      FLURRIES  -6 -13  71 N12G20    29.89S WCI -24
THUNDER BAY    FLURRIES   1  -6  71 NW13      29.99R WCI -16
SIOUX LOOKOUT  FLURRIES  -4 -11  71 N8G17     30.08R WCI -19
TORONTO        FLURRIES  27  23  86 NE7       29.51R WCI  19
BIG TROUT LK   FLURRIES -18 -24  76 NW8       30.17R WCI -37
PICKLE LAKE    FLURRIES  -9 -17  70 N10G22    30.06R WCI -28
DRYDEN         CLEAR     -9 -13  84 NW8       30.10R WCI -26
KENORA         MOCLDY    -6  -9  84 N9        30.16R WCI -22
$$
                *** MANITOBA***

CITY           SKY/WX    TMP DP  RH WIND       PRES   REMARKS
BRANDON        CLOUDY    14  10  85 E5        30.26R WCI   6
DAUPHIN        CLOUDY    10   7  85 NE7       30.33R WCI   0
ISLAND LAKE    NOT AVBL
PILOT MOUND      N/A     12   5  73 N6          N/A  WCI   3
THE PAS        PTCLDY   -13 -17  84 NE5       30.40F WCI -25
THOMPSON       CLEAR    -31 -36  75 W3        30.42R
WINNIPEG       MOCLDY     3  -2  78 N12       30.31S WCI -13
LYNN LAKE      CLEAR    -33 -40  68 NE3       30.37F
CHURCHILL      CRYSTALS -26 -31  75 NW15      30.45S DRFTSNOWWCI -52
GILLAM         CLEAR    -27 -35  68 NW9       30.39S WCI -49
$$
                ***SASKATCHEWAN***

CITY           SKY/WX    TMP DP  RH WIND       PRES   REMARKS
ESTEVAN        MOCLDY    19  16  86 SW3       30.19F
KINDERSLEY     CLOUDY    30  28  93 S5        30.18S
LLOYDMINSTER   MOCLDY    30  28  93 SE7       30.10F FOG     WCI  23
PRINCE ALBERT  FLURRIES  16   9  73 E10       30.26S WCI   3
REGINA         CLOUDY    21  19  93 N5        30.22R WCI  15
YORKTON        CLOUDY    16  12  86 N8        30.23R WCI   5
N. BATTLEFORD  LGT SNOW  28  28 100 SE5       30.19F WCI  23
LA RONGE       CLOUDY     1  -4  78 E6        30.31S WCI -10
SASKATOON      CLOUDY    23  21  93 CALM      30.23S
SWIFT CURRENT  CLOUDY    32  27  80 SW8       30.18F WCI  25
$$
NOTE: THESE ARE AUTOMATED STATIONS WITH LIMITED QUALITY CONTROL
      "FAIR" INDICATES FEW OR NO CLOUDS BELOW 12,000 FEET WITH NO
      SIGNIFICANT WEATHER AND/OR OBSTRUCTIONS TO VISIBILITY.
      SKY/WX - SKY CONDITION AND SIGNIFICANT WEATHER.
      TMP - AIR TEMPERATURE.    DP   - DEWPOINT TEMPERATURE.
      RH  - RELATIVE HUMIDITY.  PRES - PRESSURE.
      HX  - HEAT INDEX.         WCI  - WIND CHILL INDEX.
$



USA.gov is the U.S. government's official web portal to all federal, state and local government web resources and services.